CAS500-1

operational
NORAD ID: 47932 Int'l Des: 2021-022 Owner: KARI Country: KR
LEOCIRCULARRETROGRADESSO

About CAS500-1

Description loading...

Live Position

Loading 3D Globe...

Upcoming Passes

Altitude History

Altitude vs Time

uPlot chart will show altitude changes over time

Two-Line Element Set

1 47932U 21022A 26061.23146602 .00009180 00000-0 42599-3 0 9991
2 47932 97.4028 318.5737 0004368 312.4759 47.6106 15.20249199274518
Epoch: Mar 2, 2026 • Age: 29 hours

Current Status

Altitude 507.7 km
Velocity 7.61 km/s
Sub-Earth Point 26.19°N, 74.41°E
Launch Date Mar 22, 2021
Age 4.9 years
Type earth observation

Technical Details

Classification Payload
Mass 500.00 kg
Dry Mass 480.00 kg
Total Mass 500.00 kg
Length 2.90 m
Diameter 1.90 m
Span 6.00 m
Shape Box+4 pan
Manufacturer KRAI
Bus Type CAS500
Phase Status In Orbit
Owner/State KARI/KR

Large Constellations

Loading constellations...